Retour au catalogue

STARLINK-3785

ActifCommunicationsVLEO
NORAD 52375·PAYLOAD·🇺🇸 United States

Lancé Apr 29, 2022 depuis Cape Canaveral Space Force Station

Loading…

Prochains Passages (prochaines 24 heures)

TLE

FraisSource: CelesTrak SupGP

Époque: Sep 15, 2026, 01:33 UTC

1 52375C 22045AW  26258.06506944 -.00034335  00000+0 -10148-2 0  2585
2 52375  53.1599  45.2553 0001097  84.4801 131.7878 15.34396487    18

Suivez STARLINK-3785 en temps réel avec AllMySat

Download on the App Store